Weather in Severo-Pletnevo

Russia / Tyumen Oblast     56°51′50″N   68°04′06″E
temp.,
°C
wind,
m/s
gust,
m/s
humid.,
%
clouds,
%
prec.,
mm/h
press.,
hPa
HPBL,
m
16 may, sun
sun1623:00+22w5134378 0.0 1015250
02:00+19wnw5134929 0.0 1015269
05:00+18wnw3560100 0.0 101673
08:00+23w5845100 0.1 1016322
11:00+28wnw7113572 0.3 10151799
14:00+29nw793264 0.0 10152307
17:00+30nw6112979 0.0 10152843
20:00+25nw124244 0.0 101511
17 may, mon
mon1723:00+22wsw333917 0.0 101531
02:00+20w410435 0.0 1015137
05:00+19w494513 0.0 1016146
08:00+25w612405 0.0 1016524
11:00+29wnw711295 0.0 10153127
14:00+31w8112193 0.0 10143716
17:00+29wsw8112633 0.0 10121915
20:00+25w8163192 0.0 1012488
18 may, tue
tue1823:00+16wnw22775 0.2 101321
02:00+16w4871100 0.0 1012127
05:00+16w487243 0.0 1012127
08:00+22w57515 0.0 1011482
11:00+25nnw68425 0.0 10101830
14:00+22wnw5104647 0.3 1010512
17:00+19n9115686 1.1 10121587
20:00+13n81173100 0.1 1015885
19 may, wed
wed1923:00+12nne71169100 0.1 1019973
02:00+11n6106495 0.0 10201297
05:00+8nne511754 0.0 1022460
08:00+12nne47560 0.0 1024984
11:00+16n56375 0.0 10241593
14:00+18n5629100 0.0 10231733
17:00+18n562928 0.0 10231776
20:00+14nne234525 0.0 102323
20 may, thu
thu2023:00+11nne114734 0.0 102410
02:00+10sw114938 0.0 102410
05:00+9wsw345538 0.0 102461
08:00+16w47465 0.0 1023426
11:00+21w673663 0.0 10221709
14:00+24w7830100 0.0 10202079
17:00+25wnw683143 0.0 10182217
20:00+20w49465 0.0 1018129